Regional Weather Roundup
Issued by NWS

Home | Current Version | Previous Version | Text Only | Print | Product List | Glossary Off
Versions: 1 2 3 4 5 6 7 8 9 10 11 12 13 14 15 16 17 18 19 20 21 22 23 24 25 26 27 28 29 30 31 32 33 34 35 36 37 38 39 40 41 42 43 44 45 46 47 48 49 50

000
ASUS45 KSLC 260010
RWRUT

UTAH REGIONAL WEATHER ROUNDUP
NATIONAL WEATHER SERVICE SALT LAKE CITY UT
600 PM MDT MON MAY 25 2015

UTZ001>011-023>025-260100-

NORTHERN UTAH

CITY           SKY/WX    TMP DP  RH WIND       PRES   REMARKS
BRIGHAM CITY   CLOUDY    67  44  42 E5        29.94F
HILL AFB       NOT AVBL
LOGAN          LGT RAIN  55  48  77 NW13      29.99R
OGDEN          PTSUNNY   67  38  34 NW3       29.94S
PROVO AIRPORT  NOT AVBL
SALT LAKE CITY PTSUNNY   71  41  33 NW5       29.93S
VERNAL         LGT RAIN  53  46  77 N10       30.00R
WENDOVER       PTSUNNY   66  43  42 E5        29.92F
HEBER CITY     PTSUNNY   61  39  44 SW7       29.97F
WEST JORDAN    MOSUNNY   66  43  42 S6        29.96F

$$

UTZ012>022-026-027-260100-

SOUTHERN/CENTRAL UTAH

CITY           SKY/WX    TMP DP  RH WIND       PRES   REMARKS
BLANDING       MOSUNNY   61  43  50 CALM      30.08S
BRYCE CANYON   MOSUNNY   63  34  33 NW15G24   30.08S
CEDAR CITY     MOSUNNY   67  36  31 CALM      29.99F
DELTA          MOSUNNY   72  35  25 W7        29.93F
HANKSVILLE     PTSUNNY   73  36  25 SW7       29.92F
MILFORD        SUNNY     71  41  33 SW14      29.95F
MOAB/CYNLANDS  SUNNY     67  42  40 SE9       29.92S
PRICE          PTSUNNY   63  40  42 SE9       29.99S
ST GEORGE      PTCLDY    81  39  22 SW13G20   29.88F

$$

REGIONAL REPORTS     COLORADO/ARIZONA

CITY           SKY/WX    TMP DP  RH WIND       PRES   REMARKS
CRAIG, CO      CLOUDY    57  41  55 W8        30.00R
GRAND JUNCTION MOSUNNY   66  41  40 W10       29.94S
RIFLE          MOSUNNY   61  42  49 CALM      29.96F
MONTROSE       PTSUNNY   61  40  45 S7        30.01S
CORTEZ         SUNNY     57  43  59 E10       30.03F
PAGE, AZ       MOSUNNY   73  42  32 SE3       29.92F
GRAND CANYON   MOSUNNY   64  39  39 W9        30.08F
KINGMAN        MOSUNNY   82  35  18 SW13      29.92F
FLAGSTAFF      MOSUNNY   54  46  74 SW12      30.13S

$$

REGIONAL REPORTS    NEVADA/IDAHO/WYOMING

CITY           SKY/WX    TMP DP  RH WIND       PRES   REMARKS
LAS VEGAS, NV  MOSUNNY   86  46  24 E8        29.79F
ELY            MOSUNNY   67  33  28 SW16G23   29.99S
ELKO           CLOUDY    60  43  53 N9        29.99R
POCATELLO, ID  MOSUNNY   72  40  31 W8        29.89F
BURLEY         PTSUNNY   64  47  53 S17       29.89S
EVANSTON, WY   LGT RAIN  49  40  71 N7        30.07R
ROCK SPRINGS   LGT RAIN  46  41  82 SE3       30.04S
KEMMERER       PTSUNNY   52  43  71 SW12      30.06R

$$


USA.gov is the U.S. government's official web portal to all federal, state and local government web resources and services.